K6OUA-11 Weather Reports


time (UTC)temp
C
wind
direction
speed
KPH
gust
KPH
rain 1hr
cm
rain 24hr
cm
rain mn
cm
humidity
%
barometer
mb
20260508175953 17 302 6.4 19.3 0.00 0.00 0.00 78
20260508175749 17 270 9.7 16.1 0.00 0.00 0.00 78
20260508175550 17 258 14.5 16.1 0.00 0.00 0.00 80
20260508175347 16 264 12.9 16.1 0.00 0.00 0.00 79
20260508175145 17 262 9.7 19.3 0.00 0.00 0.00 80
20260508174944 16 268 14.5 19.3 0.00 0.00 0.00 80
20260508174742 16 268 14.5 19.3 0.00 0.00 0.00 79
20260508174339 17 291 14.5 19.3 0.00 0.00 0.00 79
20260508174138 17 289 11.3 20.9 0.00 0.00 0.00 79
20260508173934 16 285 11.3 20.9 0.00 0.00 0.00 80
20260508173127 16 282 16.1 16.1 0.00 0.00 0.00 81
20260508172925 16 270 11.3 16.1 0.00 0.00 0.00 82
20260508172723 16 279 11.3 12.9 0.00 0.00 0.00 81
20260508172519 16 264 11.3 12.9 0.00 0.00 0.00 81
20260508172318 16 293 11.3 12.9 0.00 0.00 0.00 82
20260508172117 16 180 0.0 12.9 0.00 0.00 0.00 83
20260508171915 16 291 11.3 12.9 0.00 0.00 0.00 83
20260508171512 16 254 9.7 16.1 0.00 0.00 0.00 85
20260508171310 16 281 11.3 16.1 0.00 0.00 0.00 83
20260508171108 16 285 6.4 16.1 0.00 0.00 0.00 83
20260508170906 16 289 11.3 16.1 0.00 0.00 0.00 84
20260508170704 16 264 11.3 16.1 0.00 0.00 0.00 86
20260508170502 15 278 12.9 16.1 0.00 0.00 0.00 87
20260508170300 15 302 9.7 17.7 0.00 0.00 0.00 86
20260508170058 15 279 14.5 17.7 0.00 0.00 0.00 86
20260508165856 15 279 14.5 17.7 0.00 0.00 0.00 87
20260508165654 15 300 6.4 16.1 0.00 0.00 0.00 87
20260508165451 15 277 14.5 16.1 0.00 0.00 0.00 87
20260508165250 15 316 6.4 12.9 0.00 0.00 0.00 86
20260508165049 15 291 9.7 12.9 0.00 0.00 0.00 85
20260508164847 15 274 6.4 12.9 0.00 0.00 0.00 86
20260508164645 15 264 8.0 12.9 0.00 0.00 0.00 88
20260508164442 15 315 3.2 12.9 0.00 0.00 0.00 87
20260508164241 15 265 1.6 12.9 0.00 0.00 0.00 88
20260508163837 15 292 8.0 12.9 0.00 0.00 0.00 89
20260508163635 15 181 0.0 12.9 0.00 0.00 0.00 89
20260508163434 15 243 1.6 12.9 0.00 0.00 0.00 90
20260508163231 15 275 8.0 12.9 0.00 0.00 0.00 90
20260508163030 14 305 8.0 12.9 0.00 0.00 0.00 90
20260508162828 14 284 8.0 12.9 0.00 0.00 0.00 90
20260508162422 14 286 9.7 14.5 0.00 0.00 0.00 91
20260508162220 14 296 8.0 11.3 0.00 0.00 0.00 90
20260508162020 14 281 3.2 11.3 0.00 0.00 0.00 91
20260508161818 14 264 8.0 11.3 0.00 0.00 0.00 91
20260508161617 14 282 6.4 11.3 0.00 0.00 0.00 91
20260508161414 14 275 6.4 11.3 0.00 0.00 0.00 91
20260508161010 14 289 4.8 4.8 0.00 0.00 0.00 93
20260508160606 14 277 3.2 6.4 0.00 0.00 0.00 93
20260508160405 14 270 0.0 6.4 0.00 0.00 0.00 93
20260508160201 14 289 0.0 8.0 0.00 0.00 0.00 93
20260508160001 14 285 3.2 8.0 0.00 0.00 0.00 93
20260508155757 14 296 3.2 9.7 0.00 0.00 0.00 93
20260508155154 14 272 3.2 6.4 0.00 0.00 0.00 94
20260508154951 14 264 4.8 6.4 0.00 0.00 0.00 94
20260508154750 13 201 0.0 3.2 0.00 0.00 0.00 95
20260508154547 13 178 1.6 3.2 0.00 0.00 0.00 95
20260508154344 13 298 0.0 3.2 0.00 0.00 0.00 94
20260508154143 13 309 1.6 6.4 0.00 0.00 0.00 95
20260508153942 13 281 0.0 6.4 0.00 0.00 0.00 95
20260508153740 13 281 0.0 4.8 0.00 0.00 0.00 95
20260508153538 13 281 0.0 4.8 0.00 0.00 0.00 95
20260508153134 13 243 0.0 3.2 0.00 0.00 0.00 95
20260508152933 13 285 1.6 3.2 0.00 0.00 0.00 95
20260508152730 13 300 1.6 3.2 0.00 0.00 0.00 95
20260508152527 13 302 1.6 3.2 0.00 0.00 0.00 95
20260508152327 13 293 1.6 3.2 0.00 0.00 0.00 95
20260508152125 13 274 0.0 4.8 0.00 0.00 0.00 95
20260508151720 13 240 0.0 6.4 0.00 0.00 0.00 95
20260508151116 13 295 3.2 4.8 0.00 0.00 0.00 95
20260508150913 13 251 0.0 4.8 0.00 0.00 0.00 95
20260508150712 13 271 3.2 6.4 0.00 0.00 0.00 95
20260508150510 13 241 0.0 6.4 0.00 0.00 0.00 95
20260508150308 13 278 4.8 0.0 0.00 0.00 0.00 95
20260508150106 13 284 4.8 0.0 0.00 0.00 0.00 95
20260508145904 13 262 0.0 0.0 0.00 0.00 0.00 95
20260508145702 13 262 0.0 0.0 0.00 0.00 0.00 95
20260508145500 13 262 0.0 0.0 0.00 0.00 0.00 95
20260508145259 13 262 0.0 0.0 0.00 0.00 0.00 95
20260508145056 12 262 0.0 0.0 0.00 0.00 0.00 95
20260508144653 12 262 0.0 0.0 0.00 0.00 0.00 95
20260508144450 12 262 0.0 0.0 0.00 0.00 0.00 95
20260508144248 12 262 0.0 0.0 0.00 0.00 0.00 95
20260508144047 12 262 0.0 0.0 0.00 0.00 0.00 94
20260508143643 12 262 0.0 1.6 0.00 0.00 0.00 93
20260508143240 13 262 0.0 0.0 0.00 0.00 0.00 94
20260508143037 13 305 0.0 0.0 0.00 0.00 0.00 95
20260508142836 13 305 0.0 0.0 0.00 0.00 0.00 95
20260508142634 12 305 0.0 0.0 0.00 0.00 0.00 95
20260508142432 12 305 0.0 0.0 0.00 0.00 0.00 95
20260508142028 12 305 0.0 0.0 0.00 0.00 0.00 95
20260508141826 12 305 0.0 0.0 0.00 0.00 0.00 95
20260508141624 12 305 0.0 0.0 0.00 0.00 0.00 95
20260508141422 12 305 0.0 0.0 0.00 0.00 0.00 95
20260508141219 12 305 0.0 0.0 0.00 0.00 0.00 95
20260508141018 12 305 0.0 0.0 0.00 0.00 0.00 95
20260508140816 12 305 0.0 0.0 0.00 0.00 0.00 95
20260508140614 12 305 0.0 0.0 0.00 0.00 0.00 95
20260508140412 12 305 0.0 0.0 0.00 0.00 0.00 95
20260508140210 12 305 0.0 0.0 0.00 0.00 0.00 95
20260508140007 11 305 0.0 0.0 0.00 0.00 0.00 95
20260508135807 11 305 0.0 0.0 0.00 0.00 0.00 95
20260508135605 11 305 0.0 0.0 0.00 0.00 0.00 95
20260508135403 11 305 0.0 0.0 0.00 0.00 0.00 95
20260508135201 11 305 0.0 0.0 0.00 0.00 0.00 95
20260508134959 11 305 0.0 0.0 0.00 0.00 0.00 95
20260508134757 11 305 0.0 0.0 0.00 0.00 0.00 94
20260508134555 11 305 0.0 0.0 0.00 0.00 0.00 94
20260508134354 11 305 0.0 0.0 0.00 0.00 0.00 94
20260508134152 11 305 0.0 0.0 0.00 0.00 0.00 94
20260508133748 11 305 0.0 0.0 0.00 0.00 0.00 95
20260508133545 11 305 0.0 0.0 0.00 0.00 0.00 95
20260508133344 11 305 0.0 0.0 0.00 0.00 0.00 95
20260508133142 11 305 0.0 0.0 0.00 0.00 0.00 95
20260508132940 11 305 0.0 0.0 0.00 0.00 0.00 95
20260508132738 11 305 0.0 0.0 0.00 0.00 0.00 95
20260508132536 11 305 0.0 0.0 0.00 0.00 0.00 94
20260508132334 11 305 0.0 0.0 0.00 0.00 0.00 94
20260508132131 11 305 0.0 0.0 0.00 0.00 0.00 94
20260508131729 11 305 0.0 0.0 0.00 0.00 0.00 94
20260508131526 11 305 0.0 0.0 0.00 0.00 0.00 95
20260508131327 11 305 0.0 0.0 0.00 0.00 0.00 94
20260508131325 11 305 0.0 0.0 0.00 0.00 0.00 95
20260508131123 11 305 0.0 0.0 0.00 0.00 0.00 94
20260508130921 11 305 0.0 0.0 0.00 0.00 0.00 94
20260508130719 11 305 0.0 0.0 0.00 0.00 0.00 94
20260508130517 11 305 0.0 0.0 0.00 0.00 0.00 94
20260508130316 11 305 0.0 0.0 0.00 0.00 0.00 94
20260508125911 11 305 0.0 0.0 0.00 0.00 0.00 94
20260508125708 11 305 0.0 0.0 0.00 0.00 0.00 94
20260508125508 11 305 0.0 0.0 0.00 0.00 0.00 94
20260508124902 11 305 0.0 0.0 0.00 0.00 0.00 94
20260508124700 11 305 0.0 0.0 0.00 0.00 0.00 94
20260508124458 11 305 0.0 0.0 0.00 0.00 0.00 94
20260508124256 11 305 0.0 0.0 0.00 0.00 0.00 94
20260508124208 11 305 0.0 0.0 0.00 0.00 0.00 94
20260508124055 11 305 0.0 0.0 0.00 0.00 0.00 94
20260508123852 11 305 0.0 0.0 0.00 0.00 0.00 94
20260508123651 11 305 0.0 0.0 0.00 0.00 0.00 94
20260508123449 11 305 0.0 0.0 0.00 0.00 0.00 94
20260508123247 11 305 0.0 0.0 0.00 0.00 0.00 94
20260508123045 11 305 0.0 0.0 0.00 0.00 0.00 94
20260508122641 11 305 0.0 0.0 0.00 0.00 0.00 94
20260508122237 12 305 0.0 0.0 0.00 0.00 0.00 94
20260508122036 11 305 0.0 0.0 0.00 0.00 0.00 94
20260508121834 11 305 0.0 0.0 0.00 0.00 0.00 94
20260508121632 11 305 0.0 0.0 0.00 0.00 0.00 94
20260508121430 11 305 0.0 0.0 0.00 0.00 0.00 94
20260508121228 11 305 0.0 0.0 0.00 0.00 0.00 94
20260508121026 11 305 0.0 0.0 0.00 0.00 0.00 94
20260508120824 11 305 0.0 0.0 0.00 0.00 0.00 94
20260508120622 11 305 0.0 0.0 0.00 0.00 0.00 94
20260508120420 11 305 0.0 0.0 0.00 0.00 0.00 94
20260508120218 11 305 0.0 0.0 0.00 0.00 0.00 94
20260508120015 11 305 0.0 0.0 0.00 0.00 0.00 94
20260508115814 11 305 0.0 0.0 0.00 0.00 0.00 94
20260508115613 11 305 0.0 0.0 0.00 0.00 0.00 94
20260508115410 11 305 0.0 0.0 0.00 0.00 0.00 94
20260508115208 11 305 0.0 0.0 0.00 0.00 0.00 93
20260508115007 11 305 0.0 0.0 0.00 0.00 0.00 93
20260508114805 12 305 0.0 0.0 0.00 0.00 0.00 93
20260508114603 12 305 0.0 0.0 0.00 0.00 0.00 93
20260508114401 12 305 0.0 0.0 0.00 0.00 0.00 93
20260508114159 12 305 0.0 0.0 0.00 0.00 0.00 93
20260508113957 12 305 0.0 0.0 0.00 0.00 0.00 93
20260508113553 12 305 0.0 0.0 0.00 0.00 0.00 93
20260508113355 12 305 0.0 0.0 0.00 0.00 0.00 93
20260508113149 12 305 0.0 0.0 0.00 0.00 0.00 93
20260508112948 12 305 0.0 0.0 0.00 0.00 0.00 93
20260508112746 12 305 0.0 0.0 0.00 0.00 0.00 93
20260508112544 12 305 0.0 0.0 0.00 0.00 0.00 93
20260508112342 12 305 0.0 0.0 0.00 0.00 0.00 93
20260508112140 12 305 0.0 0.0 0.00 0.00 0.00 93
20260508111736 12 305 0.0 0.0 0.00 0.00 0.00 93
20260508111332 12 305 0.0 0.0 0.00 0.00 0.00 93
20260508111131 12 305 0.0 0.0 0.00 0.00 0.00 93
20260508110929 12 305 0.0 0.0 0.00 0.00 0.00 93
20260508110727 12 305 0.0 0.0 0.00 0.00 0.00 93
20260508110524 12 305 0.0 0.0 0.00 0.00 0.00 93
20260508110323 12 305 0.0 0.0 0.00 0.00 0.00 93
20260508110121 12 305 0.0 0.0 0.00 0.00 0.00 93
20260508105919 12 305 0.0 0.0 0.00 0.00 0.00 92
20260508105719 12 305 0.0 0.0 0.00 0.00 0.00 92
20260508105515 12 305 0.0 0.0 0.00 0.00 0.00 92
20260508105112 12 305 0.0 0.0 0.00 0.00 0.00 92
20260508104910 12 305 0.0 0.0 0.00 0.00 0.00 92
20260508104709 12 305 0.0 0.0 0.00 0.00 0.00 92
20260508104506 12 305 0.0 0.0 0.00 0.00 0.00 92
20260508104304 12 305 0.0 0.0 0.00 0.00 0.00 92
20260508103900 12 305 0.0 0.0 0.00 0.00 0.00 92
20260508103658 12 305 0.0 0.0 0.00 0.00 0.00 92
20260508103456 12 305 0.0 0.0 0.00 0.00 0.00 92
20260508103254 12 305 0.0 0.0 0.00 0.00 0.00 92
20260508103052 12 305 0.0 0.0 0.00 0.00 0.00 92
20260508102850 12 305 0.0 0.0 0.00 0.00 0.00 92
20260508102446 12 305 0.0 0.0 0.00 0.00 0.00 92
20260508102244 12 305 0.0 0.0 0.00 0.00 0.00 92
20260508102043 12 305 0.0 0.0 0.00 0.00 0.00 92
20260508101841 12 305 0.0 0.0 0.00 0.00 0.00 92
20260508101639 12 305 0.0 0.0 0.00 0.00 0.00 92
20260508101437 12 305 0.0 0.0 0.00 0.00 0.00 92
20260508101235 12 305 0.0 0.0 0.00 0.00 0.00 91
20260508100428 12 305 0.0 0.0 0.00 0.00 0.00 91
20260508100226 12 305 0.0 0.0 0.00 0.00 0.00 91
20260508100024 12 305 0.0 0.0 0.00 0.00 0.00 91
20260508095620 12 305 0.0 0.0 0.00 0.00 0.00 91
20260508095419 12 305 0.0 0.0 0.00 0.00 0.00 91
20260508095015 12 305 0.0 0.0 0.00 0.00 0.00 91
20260508094812 12 305 0.0 0.0 0.00 0.00 0.00 91
20260508094611 12 305 0.0 0.0 0.00 0.00 0.00 91
20260508094409 12 305 0.0 0.0 0.00 0.00 0.00 91
20260508093803 12 305 0.0 0.0 0.00 0.00 0.00 91
20260508093601 12 305 0.0 0.0 0.00 0.00 0.00 91
20260508093157 12 305 0.0 0.0 0.00 0.00 0.00 90
20260508092955 12 305 0.0 0.0 0.00 0.00 0.00 90
20260508092753 12 305 0.0 0.0 0.00 0.00 0.00 90
20260508092551 12 305 0.0 0.0 0.00 0.00 0.00 90
20260508092147 12 305 0.0 0.0 0.00 0.00 0.00 90
20260508091542 13 305 0.0 0.0 0.00 0.00 0.00 90
20260508091338 13 305 0.0 0.0 0.00 0.00 0.00 89
20260508091138 13 305 0.0 0.0 0.00 0.00 0.00 90
20260508090936 13 305 0.0 0.0 0.00 0.00 0.00 90
20260508090734 13 305 0.0 0.0 0.00 0.00 0.00 89
20260508090533 13 305 0.0 0.0 0.00 0.00 0.00 89
20260508090331 13 305 0.0 0.0 0.00 0.00 0.00 89
20260508090127 13 305 0.0 1.6 0.00 0.00 0.00 89
20260508085927 13 305 0.0 1.6 0.00 0.00 0.00 89
20260508085725 13 305 0.0 4.8 0.00 0.00 0.00 90
20260508085523 13 305 0.0 4.8 0.00 0.00 0.00 90
20260508085319 13 299 1.6 4.8 0.00 0.00 0.00 90
20260508085119 13 265 0.0 9.7 0.00 0.00 0.00 90
20260508084917 13 265 0.0 9.7 0.00 0.00 0.00 90
20260508084715 13 279 6.4 0.0 0.00 0.00 0.00 90
20260508084514 13 257 0.0 0.0 0.00 0.00 0.00 90
20260508084311 13 257 0.0 0.0 0.00 0.00 0.00 89
20260508084110 13 257 0.0 0.0 0.00 0.00 0.00 89
20260508083908 13 257 0.0 0.0 0.00 0.00 0.00 89
20260508083705 13 257 0.0 0.0 0.00 0.00 0.00 89
20260508082900 13 257 0.0 6.4 0.00 0.00 0.00 89
20260508082656 13 286 3.2 0.0 0.00 0.00 0.00 89
20260508082455 13 164 0.0 0.0 0.00 0.00 0.00 89
20260508082252 13 164 0.0 0.0 0.00 0.00 0.00 88
20260508082051 13 164 0.0 0.0 0.00 0.00 0.00 88
20260508081849 13 164 0.0 0.0 0.00 0.00 0.00 88
20260508081647 13 164 0.0 0.0 0.00 0.00 0.00 88
20260508081445 13 164 0.0 0.0 0.00 0.00 0.00 88
20260508081243 13 164 0.0 0.0 0.00 0.00 0.00 88
20260508081041 13 164 0.0 0.0 0.00 0.00 0.00 88
20260508080839 13 164 0.0 0.0 0.00 0.00 0.00 88
20260508080233 13 164 0.0 0.0 0.00 0.00 0.00 87
20260508080032 13 164 0.0 0.0 0.00 0.00 0.00 87
20260508075830 13 164 0.0 0.0 0.00 0.00 0.00 87
20260508075628 13 164 0.0 0.0 0.00 0.00 0.00 87
20260508075426 13 164 0.0 0.0 0.00 0.00 0.00 87
20260508075021 13 164 0.0 0.0 0.00 0.00 0.00 87
20260508074618 13 164 0.0 0.0 0.00 0.00 0.00 87
20260508074417 13 164 0.0 0.0 0.00 0.00 0.00 87
20260508074013 13 164 0.0 0.0 0.00 0.00 0.00 87
20260508073609 13 164 0.0 0.0 0.00 0.00 0.00 87
20260508073407 13 164 0.0 0.0 0.00 0.00 0.00 87
20260508073205 13 164 0.0 0.0 0.00 0.00 0.00 87
20260508073003 13 164 0.0 0.0 0.00 0.00 0.00 87
20260508072802 13 164 0.0 0.0 0.00 0.00 0.00 87
20260508072557 13 164 0.0 0.0 0.00 0.00 0.00 87
20260508072357 13 164 0.0 0.0 0.00 0.00 0.00 87
20260508072155 13 164 0.0 0.0 0.00 0.00 0.00 87
20260508071954 13 164 0.0 0.0 0.00 0.00 0.00 87
20260508071752 13 164 0.0 1.6 0.00 0.00 0.00 87
20260508071549 13 164 0.0 1.6 0.00 0.00 0.00 87
20260508071349 13 164 0.0 1.6 0.00 0.00 0.00 87
20260508071144 13 164 0.0 0.0 0.00 0.00 0.00 87
20260508070944 13 288 0.0 0.0 0.00 0.00 0.00 87
20260508070742 13 288 0.0 0.0 0.00 0.00 0.00 87
20260508070540 13 288 0.0 0.0 0.00 0.00 0.00 86
20260508070338 13 288 0.0 0.0 0.00 0.00 0.00 87
20260508070136 13 288 0.0 0.0 0.00 0.00 0.00 87
20260508065934 13 288 0.0 0.0 0.00 0.00 0.00 86
20260508065732 13 288 0.0 0.0 0.00 0.00 0.00 86
20260508065530 13 288 0.0 0.0 0.00 0.00 0.00 86
20260508065329 13 288 0.0 0.0 0.00 0.00 0.00 86
20260508065127 14 288 0.0 0.0 0.00 0.00 0.00 86
20260508064925 14 288 0.0 0.0 0.00 0.00 0.00 86
20260508064723 14 288 0.0 0.0 0.00 0.00 0.00 86
20260508064319 14 288 0.0 0.0 0.00 0.00 0.00 85
20260508063916 14 288 0.0 0.0 0.00 0.00 0.00 85
20260508063714 14 288 0.0 0.0 0.00 0.00 0.00 85
20260508063514 14 288 0.0 0.0 0.00 0.00 0.00 85
20260508063309 14 288 0.0 0.0 0.00 0.00 0.00 84
20260508063107 14 288 0.0 0.0 0.00 0.00 0.00 84
20260508062704 14 288 0.0 0.0 0.00 0.00 0.00 84
20260508062502 14 288 0.0 0.0 0.00 0.00 0.00 84
20260508062300 15 288 0.0 0.0 0.00 0.00 0.00 84
20260508062058 15 288 0.0 0.0 0.00 0.00 0.00 84
20260508061857 15 288 0.0 0.0 0.00 0.00 0.00 84
20260508061653 15 288 0.0 0.0 0.00 0.00 0.00 84
20260508061452 15 288 0.0 0.0 0.00 0.00 0.00 84
20260508061251 15 288 0.0 0.0 0.00 0.00 0.00 84
20260508061049 15 288 0.0 0.0 0.00 0.00 0.00 84
20260508060847 15 288 0.0 0.0 0.00 0.00 0.00 84
20260508060443 15 288 0.0 0.0 0.00 0.00 0.00 84
20260508060241 15 288 0.0 0.0 0.00 0.00 0.00 84
20260508060039 15 288 0.0 0.0 0.00 0.00 0.00 83
20260508055837 15 288 0.0 0.0 0.00 0.00 0.00 83
20260508055635 15 288 0.0 0.0 0.00 0.00 0.00 83
20260508055232 15 288 0.0 3.2 0.00 0.00 0.00 83
20260508055030 15 288 0.0 3.2 0.00 0.00 0.00 83
20260508054828 15 288 0.0 3.2 0.00 0.00 0.00 83
20260508054626 15 302 1.6 0.0 0.00 0.00 0.00 84
20260508054424 15 286 0.0 0.0 0.00 0.00 0.00 84
20260508054222 15 286 0.0 0.0 0.00 0.00 0.00 84
20260508054020 15 286 0.0 0.0 0.00 0.00 0.00 84
20260508053820 15 286 0.0 6.4 0.00 0.00 0.00 83
20260508053617 15 286 0.0 6.4 0.00 0.00 0.00 83
20260508053414 15 286 0.0 6.4 0.00 0.00 0.00 83
20260508053011 15 302 6.4 4.8 0.00 0.00 0.00 83
20260508052809 15 296 4.8 3.2 0.00 0.00 0.00 83
20260508052605 15 298 1.6 3.2 0.00 0.00 0.00 81
20260508052203 15 286 0.0 0.0 0.00 0.00 0.00 81
20260508052000 15 286 0.0 0.0 0.00 0.00 0.00 81
20260508051759 15 286 0.0 0.0 0.00 0.00 0.00 81
20260508051558 15 286 0.0 0.0 0.00 0.00 0.00 80
20260508051355 15 286 0.0 0.0 0.00 0.00 0.00 80
20260508051154 16 286 0.0 0.0 0.00 0.00 0.00 80
20260508050750 16 286 0.0 0.0 0.00 0.00 0.00 80
20260508050547 16 286 0.0 0.0 0.00 0.00 0.00 80
20260508050346 16 286 0.0 0.0 0.00 0.00 0.00 80
20260508045942 16 286 0.0 0.0 0.00 0.00 0.00 80
20260508045741 16 286 0.0 0.0 0.00 0.00 0.00 79
20260508045336 16 286 0.0 0.0 0.00 0.00 0.00 80
20260508045134 16 286 0.0 0.0 0.00 0.00 0.00 79
20260508044729 16 286 0.0 0.0 0.00 0.00 0.00 79
20260508044327 16 286 0.0 0.0 0.00 0.00 0.00 78
20260508043923 16 286 0.0 0.0 0.00 0.00 0.00 78
20260508043721 16 286 0.0 0.0 0.00 0.00 0.00 78
20260508043519 16 286 0.0 0.0 0.00 0.00 0.00 78
20260508043318 16 286 0.0 0.0 0.00 0.00 0.00 76
20260508043115 16 286 0.0 0.0 0.00 0.00 0.00 76
20260508042914 16 286 0.0 0.0 0.00 0.00 0.00 76
20260508042712 16 286 0.0 0.0 0.00 0.00 0.00 75
20260508042308 17 286 0.0 0.0 0.00 0.00 0.00 75
20260508042107 17 286 0.0 0.0 0.00 0.00 0.00 75
20260508041904 17 286 0.0 0.0 0.00 0.00 0.00 75
20260508041702 17 286 0.0 0.0 0.00 0.00 0.00 75
20260508041500 17 286 0.0 0.0 0.00 0.00 0.00 75
20260508041258 17 286 0.0 0.0 0.00 0.00 0.00 75
20260508041056 17 286 0.0 0.0 0.00 0.00 0.00 75
20260508040854 17 286 0.0 0.0 0.00 0.00 0.00 75
20260508040652 17 286 0.0 3.2 0.00 0.00 0.00 75
20260508040451 17 286 0.0 3.2 0.00 0.00 0.00 75
20260508040248 17 286 0.0 1.6 0.00 0.00 0.00 75
20260508035845 17 295 3.2 1.6 0.00 0.00 0.00 74
20260508035643 17 272 0.0 3.2 0.00 0.00 0.00 74
20260508035441 17 272 0.0 3.2 0.00 0.00 0.00 74
20260508035239 17 272 0.0 0.0 0.00 0.00 0.00 74
20260508034634 17 255 0.0 0.0 0.00 0.00 0.00 74
20260508034230 17 255 0.0 3.2 0.00 0.00 0.00 73
20260508034028 17 255 0.0 3.2 0.00 0.00 0.00 73
20260508033825 17 255 0.0 3.2 0.00 0.00 0.00 73
20260508033421 17 289 1.6 3.2 0.00 0.00 0.00 73
20260508033220 17 278 1.6 4.8 0.00 0.00 0.00 73
20260508033018 17 265 0.0 4.8 0.00 0.00 0.00 73
20260508032816 17 265 0.0 6.4 0.00 0.00 0.00 72
20260508032615 18 265 0.0 6.4 0.00 0.00 0.00 72
20260508032411 18 272 1.6 6.4 0.00 0.00 0.00 72
20260508032210 18 248 0.0 6.4 0.00 0.00 0.00 72
20260508031807 18 264 0.0 0.0 0.00 0.00 0.00 71
20260508031605 18 253 0.0 0.0 0.00 0.00 0.00 71
20260508031403 18 258 0.0 0.0 0.00 0.00 0.00 70
20260508031204 18 258 0.0 0.0 0.00 0.00 0.00 70
20260508030959 18 258 0.0 0.0 0.00 0.00 0.00 69
20260508030757 18 258 0.0 0.0 0.00 0.00 0.00 70
20260508030555 18 258 0.0 0.0 0.00 0.00 0.00 70
20260508030354 18 258 0.0 0.0 0.00 0.00 0.00 69
20260508030152 18 258 0.0 6.4 0.00 0.00 0.00 69
20260508025948 18 258 0.0 6.4 0.00 0.00 0.00 69
20260508025748 18 258 0.0 8.0 0.00 0.00 0.00 69
20260508025344 18 279 4.8 8.0 0.00 0.00 0.00 69
20260508024740 19 285 4.8 8.0 0.00 0.00 0.00 68
20260508024132 19 277 6.4 9.7 0.00 0.00 0.00 67
20260508023729 20 278 4.8 8.0 0.00 0.00 0.00 67
20260508023527 20 272 6.4 8.0 0.00 0.00 0.00 66
20260508023325 20 275 6.4 8.0 0.00 0.00 0.00 66
20260508023123 20 293 3.2 9.7 0.00 0.00 0.00 65
20260508022921 20 278 0.0 9.7 0.00 0.00 0.00 65
20260508022719 20 278 4.8 11.3 0.00 0.00 0.00 65
20260508022519 20 289 4.8 11.3 0.00 0.00 0.00 65
20260508022114 20 282 8.0 9.7 0.00 0.00 0.00 64
20260508021911 20 271 4.8 9.7 0.00 0.00 0.00 63
20260508021709 20 271 4.8 12.9 0.00 0.00 0.00 63
20260508021507 20 279 4.8 12.9 0.00 0.00 0.00 63
20260508021306 20 262 6.4 11.3 0.00 0.00 0.00 63
20260508021104 20 270 6.4 11.3 0.00 0.00 0.00 63
20260508020902 20 271 9.7 11.3 0.00 0.00 0.00 62
20260508020700 21 278 6.4 9.7 0.00 0.00 0.00 62
20260508020458 21 291 6.4 9.7 0.00 0.00 0.00 61
20260508015852 21 292 3.2 12.9 0.00 0.00 0.00 61
20260508015650 21 268 6.4 11.3 0.00 0.00 0.00 61
20260508015448 21 272 4.8 11.3 0.00 0.00 0.00 61
20260508015044 21 267 6.4 14.5 0.00 0.00 0.00 60
20260508014842 21 250 6.4 14.5 0.00 0.00 0.00 61
20260508014438 21 293 4.8 12.9 0.00 0.00 0.00 60
20260508014236 21 285 8.0 14.5 0.00 0.00 0.00 59
20260508014034 21 274 9.7 14.5 0.00 0.00 0.00 59
20260508013832 21 271 9.7 14.5 0.00 0.00 0.00 59
20260508013630 21 281 6.4 11.3 0.00 0.00 0.00 58
20260508013429 21 296 1.6 11.3 0.00 0.00 0.00 58
20260508013227 21 265 11.3 12.9 0.00 0.00 0.00 58
20260508013025 21 267 6.4 12.9 0.00 0.00 0.00 58
20260508012823 21 306 1.6 12.9 0.00 0.00 0.00 58
20260508012418 21 277 6.4 14.5 0.00 0.00 0.00 58
20260508012217 22 265 9.7 12.9 0.00 0.00 0.00 57
20260508012015 22 260 8.0 12.9 0.00 0.00 0.00 58
20260508011813 22 293 6.4 12.9 0.00 0.00 0.00 58
20260508011611 22 277 6.4 12.9 0.00 0.00 0.00 58
20260508011409 21 279 11.3 12.9 0.00 0.00 0.00 58
20260508011207 21 282 8.0 16.1 0.00 0.00 0.00 57
20260508011004 22 285 6.4 16.1 0.00 0.00 0.00 57
20260508010601 21 278 8.0 16.1 0.00 0.00 0.00 58
20260508010359 21 293 8.0 16.1 0.00 0.00 0.00 58
20260508010157 21 286 6.4 16.1 0.00 0.00 0.00 58
20260508005955 21 279 9.7 16.1 0.00 0.00 0.00 58
20260508005551 22 289 9.7 17.7 0.00 0.00 0.00 56
20260508004945 22 267 9.7 16.1 0.00 0.00 0.00 57
20260508004743 22 261 12.9 17.7 0.00 0.00 0.00 58
20260508004542 21 279 11.3 17.7 0.00 0.00 0.00 57
20260508004339 22 303 4.8 17.7 0.00 0.00 0.00 56
20260508004138 22 258 12.9 17.7 0.00 0.00 0.00 56
20260508003935 22 267 6.4 17.7 0.00 0.00 0.00 55
20260508003734 22 261 9.7 17.7 0.00 0.00 0.00 55
20260508003531 22 243 11.3 17.7 0.00 0.00 0.00 56
20260508003330 22 258 12.9 17.7 0.00 0.00 0.00 56
20260508002924 22 288 9.7 19.3 0.00 0.00 0.00 55
20260508002722 22 279 12.9 17.7 0.00 0.00 0.00 55
20260508002320 22 267 11.3 20.9 0.00 0.00 0.00 55
20260508002117 22 264 14.5 20.9 0.00 0.00 0.00 55
20260508001916 22 270 14.5 20.9 0.00 0.00 0.00 54
20260508001714 22 274 11.3 19.3 0.00 0.00 0.00 53
20260508001511 22 302 3.2 19.3 0.00 0.00 0.00 53
20260508001108 23 274 14.5 19.3 0.00 0.00 0.00 53
20260508000300 23 272 11.3 19.3 0.00 0.00 0.00 53
20260508000056 22 286 11.3 19.3 0.00 0.00 0.00 52
20260507235854 22 271 12.9 19.3 0.00 0.00 0.00 53
20260507235654 22 264 19.3 20.9 0.00 0.00 0.00 52
20260507235251 23 278 11.3 17.7 0.00 0.00 0.00 52
20260507235049 23 282 14.5 17.7 0.00 0.00 0.00 53
20260507234846 22 271 14.5 17.7 0.00 0.00 0.00 52
20260507234645 23 265 16.1 20.9 0.00 0.00 0.00 52
20260507234443 23 261 8.0 20.9 0.00 0.00 0.00 52
20260507234240 23 265 11.3 20.9 0.00 0.00 0.00 52
20260507233838 23 264 16.1 20.9 0.00 0.00 0.00 53
20260507233635 23 261 17.7 20.9 0.00 0.00 0.00 53
20260507233432 23 262 19.3 20.9 0.00 0.00 0.00 51
20260507233029 23 265 14.5 20.9 0.00 0.00 0.00 52
20260507232836 23 262 16.1 20.9 0.00 0.00 0.00 52
20260507232827 23 262 16.1 20.9 0.00 0.00 0.00 52
20260507232625 23 261 16.1 22.5 0.00 0.00 0.00 51
20260507232221 23 298 12.9 19.3 0.00 0.00 0.00 52
20260507232019 23 282 14.5 19.3 0.00 0.00 0.00 52
20260507231817 22 268 9.7 20.9 0.00 0.00 0.00 52
20260507231413 23 272 8.0 20.9 0.00 0.00 0.00 52
20260507231009 23 254 16.1 20.9 0.00 0.00 0.00 53
20260507230806 23 258 16.1 20.9 0.00 0.00 0.00 52
20260507230403 22 248 12.9 20.9 0.00 0.00 0.00 52
20260507230000 23 264 11.3 24.1 0.00 0.00 0.00 53
20260507225758 22 285 14.5 22.5 0.00 0.00 0.00 52
20260507225556 22 261 17.7 22.5 0.00 0.00 0.00 53
20260507225354 22 282 19.3 22.5 0.00 0.00 0.00 53
20260507225152 23 277 14.5 22.5 0.00 0.00 0.00 51
20260507224950 23 278 11.3 22.5 0.00 0.00 0.00 51
20260507224748 23 277 11.3 20.9 0.00 0.00 0.00 51
20260507224142 23 248 16.1 24.1 0.00 0.00 0.00 52
20260507223536 23 262 14.5 22.5 0.00 0.00 0.00 50
20260507223334 23 268 12.9 22.5 0.00 0.00 0.00 50
20260507222930 23 258 16.1 20.9 0.00 0.00 0.00 51
20260507222728 23 279 4.8 17.7 0.00 0.00 0.00 51
20260507222527 23 275 12.9 17.7 0.00 0.00 0.00 51
20260507222123 23 264 11.3 25.7 0.00 0.00 0.00 50
20260507221921 23 275 8.0 25.7 0.00 0.00 0.00 51
20260507221719 23 261 14.5 24.1 0.00 0.00 0.00 52
20260507221516 23 295 20.9 24.1 0.00 0.00 0.00 51
20260507221315 23 282 16.1 25.7 0.00 0.00 0.00 51
20260507220709 23 271 14.5 24.1 0.00 0.00 0.00 52
20260507220505 23 260 19.3 24.1 0.00 0.00 0.00 51
20260507220304 23 257 14.5 24.1 0.00 0.00 0.00 51
20260507215901 23 240 17.7 24.1 0.00 0.00 0.00 51
20260507215659 23 275 12.9 27.4 0.00 0.00 0.00 51
20260507215457 23 240 6.4 27.4 0.00 0.00 0.00 52
20260507215258 23 257 12.9 24.1 0.00 0.00 0.00 51
20260507215255 23 257 12.9 24.1 0.00 0.00 0.00 51
20260507215053 23 268 19.3 24.1 0.00 0.00 0.00 51
20260507214851 23 262 12.9 24.1 0.00 0.00 0.00 51
20260507214454 23 260 12.9 27.4 0.00 0.00 0.00 51
20260507214244 23 261 9.7 24.1 0.00 0.00 0.00 52
20260507214043 23 270 22.5 24.1 0.00 0.00 0.00 52
20260507213840 23 257 16.1 24.1 0.00 0.00 0.00 52
20260507213237 23 243 14.5 30.6 0.00 0.00 0.00 53
20260507212831 23 265 14.5 30.6 0.00 0.00 0.00 52
20260507212630 23 261 16.1 29.0 0.00 0.00 0.00 52
20260507211821 23 254 22.5 25.7 0.00 0.00 0.00 51
20260507211619 23 271 16.1 24.1 0.00 0.00 0.00 52
20260507211416 23 254 9.7 24.1 0.00 0.00 0.00 52
20260507211215 23 264 12.9 29.0 0.00 0.00 0.00 51
20260507211015 23 302 8.0 29.0 0.00 0.00 0.00 53
20260507210407 23 258 14.5 24.1 0.00 0.00 0.00 52
20260507210004 23 265 19.3 22.5 0.00 0.00 0.00 50
20260507205600 24 234 19.3 25.7 0.00 0.00 0.00 50
20260507205359 24 246 12.9 25.7 0.00 0.00 0.00 51
20260507205156 23 237 4.8 24.1 0.00 0.00 0.00 52
20260507204954 23 277 20.9 24.1 0.00 0.00 0.00 51
20260507204752 23 247 17.7 25.7 0.00 0.00 0.00 52
20260507204550 23 282 14.5 25.7 0.00 0.00 0.00 51
20260507203944 24 278 11.3 22.5 0.00 0.00 0.00 50
20260507202532 23 268 22.5 22.5 0.00 0.00 0.00 51
20260507202127 23 267 19.3 27.4 0.00 0.00 0.00 51
20260507201521 24 246 16.1 22.5 0.00 0.00 0.00 51
20260507201319 24 281 6.4 24.1 0.00 0.00 0.00 52
20260507201115 23 289 14.5 24.1 0.00 0.00 0.00 52
20260507200915 24 274 14.5 24.1 0.00 0.00 0.00 52
20260507200711 23 260 11.3 27.4 0.00 0.00 0.00 51
20260507200511 24 264 16.1 27.4 0.00 0.00 0.00 51
20260507200309 23 253 14.5 25.7 0.00 0.00 0.00 51
20260507200107 24 272 16.1 25.7 0.00 0.00 0.00 52
20260507195903 24 257 17.7 25.7 0.00 0.00 0.00 51
20260507195703 24 254 11.3 25.7 0.00 0.00 0.00 51
20260507195501 23 250 12.9 25.7 0.00 0.00 0.00 51
20260507195257 24 229 16.1 25.7 0.00 0.00 0.00 52
20260507194856 24 286 20.9 25.7 0.00 0.00 0.00 51
20260507194654 24 261 12.9 22.5 0.00 0.00 0.00 51
20260507194451 24 258 17.7 22.5 0.00 0.00 0.00 49
20260507194248 24 240 12.9 22.5 0.00 0.00 0.00 50
20260507194047 24 270 14.5 22.5 0.00 0.00 0.00 51
20260507193846 24 244 16.1 22.5 0.00 0.00 0.00 50
20260507193441 24 298 11.3 19.3 0.00 0.00 0.00 49
20260507193240 25 262 8.0 22.5 0.00 0.00 0.00 50
20260507192834 24 275 12.9 22.5 0.00 0.00 0.00 51
20260507192633 24 257 19.3 20.9 0.00 0.00 0.00 48
20260507192436 25 309 6.4 20.9 0.00 0.00 0.00 49
20260507192230 24 261 9.7 20.9 0.00 0.00 0.00 49
20260507192028 24 284 11.3 20.9 0.00 0.00 0.00 49
20260507191826 24 237 6.4 20.9 0.00 0.00 0.00 50
20260507191622 23 260 11.3 24.1 0.00 0.00 0.00 50
20260507191420 23 274 11.3 24.1 0.00 0.00 0.00 50
20260507191220 23 268 19.3 17.7 0.00 0.00 0.00 50
20260507191018 24 267 17.7 17.7 0.00 0.00 0.00 49
20260507190209 24 261 12.9 20.9 0.00 0.00 0.00 48
20260507190008 24 260 6.4 20.9 0.00 0.00 0.00 48
20260507185604 23 277 12.9 17.7 0.00 0.00 0.00 48
20260507185402 23 262 12.9 17.7 0.00 0.00 0.00 50
20260507185201 23 268 16.1 20.9 0.00 0.00 0.00 50
20260507184958 23 262 14.5 20.9 0.00 0.00 0.00 51
20260507184756 23 268 17.7 17.7 0.00 0.00 0.00 49
20260507184555 23 247 12.9 17.7 0.00 0.00 0.00 50
20260507184151 23 271 9.7 19.3 0.00 0.00 0.00 50
20260507183949 23 282 6.4 19.3 0.00 0.00 0.00 50
20260507183746 23 236 11.3 17.7 0.00 0.00 0.00 51
20260507183344 23 282 12.9 17.7 0.00 0.00 0.00 51
20260507183141 23 264 16.1 19.3 0.00 0.00 0.00 51
20260507182938 23 267 14.5 19.3 0.00 0.00 0.00 51
20260507182737 23 295 11.3 14.5 0.00 0.00 0.00 51
20260507182534 23 278 11.3 14.5 0.00 0.00 0.00 49
20260507182333 23 293 8.0 14.5 0.00 0.00 0.00 51
20260507182131 23 265 11.3 14.5 0.00 0.00 0.00 50
20260507181927 23 285 8.0 14.5 0.00 0.00 0.00 50
20260507181727 23 257 8.0 17.7 0.00 0.00 0.00 52
20260507181525 23 244 12.9 17.7 0.00 0.00 0.00 51
20260507181323 23 277 8.0 17.7 0.00 0.00 0.00 54
20260507181120 22 288 9.7 17.7 0.00 0.00 0.00 53
20260507180919 22 288 1.6 17.7 0.00 0.00 0.00 54
20260507180717 22 288 14.5 17.7 0.00 0.00 0.00 53
20260507180312 22 267 6.4 16.1 0.00 0.00 0.00 54
20260507180110 22 295 6.4 16.1 0.00 0.00 0.00 52